This demonstration page uses our WeatherBlox Daily Observations layout. Learn more.

Left ArrowRight Arrow

38.20091, -84.87328

Hourly Observations for September 29, 2016

Temp ( °F °C ) Dew Point ( °F °C ) Humidity (%) Winds ( mph kmh ) Pressure ( in mb ) Visibility ( mi km ) Precip ( " mm )
12:53 am 00:53 Clear 53 11.7 50 10 89 89 Calm 29.96 1015 10 16 0.00 0.00
1:53 am 01:53 Clear 53 11.7 49 9.4 86 86 WNW 3 6 29.96 1015 10 16 0.00 0.00
2:53 am 02:53 Cloudy 53 11.7 49 9.4 86 86 WNW 6 9 29.96 1015 10 16 0.00 0.00
3:53 am 03:53 Clear 52 11.1 48 8.9 86 86 Calm 29.97 1015 10 16 0.00 0.00
4:53 am 04:53 Clear 50 10 47 8.3 89 89 SSE 3 6 29.98 1015 9 14 0.00 0.00
5:23 am 05:23 Mostly Cloudy 51 10.6 48 8.9 89 89 Calm 30.00 1016 7 11 0.00 0.00
5:53 am 05:53 Cloudy 52 11.1 49 9.4 89 89 Calm 29.98 1015 7 11 0.00 0.00
6:53 am 06:53 Cloudy 53 11.7 50 10 89 89 Calm 29.99 1016 9 14 0.00 0.00
7:53 am 07:53 Cloudy 53 11.7 50 10 89 89 Calm 30.01 1016 8 13 0.00 0.00
8:53 am 08:53 Mostly Cloudy with Mist and Fog 53 11.7 50 10 89 89 Calm 30.04 1017 6 10 0.00 0.00
9:06 am 09:06 Partly Cloudy with Mist and Fog 53 11.7 50 10 89 89 Calm 30.03 1017 6 10 0.00 0.00
9:53 am 09:53 Cloudy 55 12.8 51 10.6 87 87 NNW 3 6 30.04 1017 7 11 0.00 0.00
10:44 am 10:44 Cloudy 57 13.9 52 11.1 83 83 N 3 6 30.06 1018 10 16 0.00 0.00
10:53 am 10:53 Cloudy 57 13.9 51 10.6 81 81 NNW 3 6 30.05 1018 10 16 0.00 0.00
11:11 am 11:11 Cloudy 59 15 52 11.1 78 78 NNW 3 6 30.06 1018 10 16 0.00 0.00
11:35 am 11:35 Cloudy 59 15 53 11.7 81 81 Calm 30.06 1018 10 16 0.00 0.00
11:45 am 11:45 Cloudy 60 15.6 52 11.1 75 75 Calm 30.06 1018 10 16 0.00 0.00
11:53 am 11:53 Cloudy 60 15.6 53 11.7 78 78 WNW 3 6 30.05 1018 10 16 0.00 0.00
12:21 pm 12:21 Cloudy 62 16.7 53 11.7 73 73 VRB 3 6 30.06 1018 10 16 0.00 0.00
12:50 pm 12:50 Cloudy 63 17 52 11 68 68 Calm 30.06 1018 10 16 0.00 0.00
12:53 pm 12:53 Cloudy 62 16.7 51 10.6 67 67 Calm 30.05 1018 10 16 0.00 0.00
1:53 pm 13:53 Cloudy 65 18.3 51 10.6 61 61 N 6 9 30.05 1018 10 16 0.00 0.00
2:53 pm 14:53 Cloudy 63 17.2 51 10.6 65 65 NNE 5 7 30.05 1018 10 16 0.00 0.00
3:53 pm 15:53 Mostly Cloudy 63 17.2 51 10.6 65 65 NE 8 13 30.04 1017 10 16 0.00 0.00
4:53 pm 16:53 Sunny 64 17.8 49 9.4 58 58 Calm 30.04 1017 10 16 0.00 0.00
5:53 pm 17:53 Mostly Cloudy 65 18.3 50 10 59 59 NE 6 9 30.05 1018 10 16 0.00 0.00
6:53 pm 18:53 Cloudy 62 16.7 50 10 65 65 Calm 30.06 1018 10 16 0.00 0.00
7:53 pm 19:53 Cloudy 59 15 51 10.6 75 75 SW 3 6 30.07 1018 10 16 0.00 0.00
8:53 pm 20:53 Cloudy 57 13.9 52 11.1 83 83 WSW 3 6 30.08 1019 10 16 0.00 0.00
9:53 pm 21:53 Mostly Cloudy 57 13.9 52 11.1 83 83 WNW 3 6 30.07 1018 10 16 0.00 0.00
10:24 pm 22:24 Cloudy 57 13.9 51 10.6 81 81 Calm 30.09 1019 10 16 0.00 0.00
10:32 pm 22:32 Cloudy 57 13.9 52 11.1 83 83 Calm 30.06 1018 10 16 0.00 0.00
10:53 pm 22:53 Cloudy with Light Rain 57 13.9 52 11.1 83 83 Calm 30.07 1018 10 16 0.00 0.03
11:53 pm 23:53 Cloudy with Rain 57 13.9 53 11.7 87 87 Calm 30.07 1018 5 8 0.04 1.02

Powered by AerisWeather